FW0859 Weather Reports


time (UTC)temp
F
wind
direction
speed
knots
gust
knots
rain 1hr
in
rain 24hr
in
rain mn
in
humidity
%
barometer
mb
20260505100017 60 105 0.0 0.0 0.00 0.00 0.00 89 1006.1
20260505094508 60 105 0.0 0.0 0.00 0.00 0.00 88 1005.7
20260505093007 60 105 0.0 0.0 0.00 0.00 0.00 87 1005.7
20260505091507 60 105 0.0 1.7 0.00 0.00 0.00 88 1005.0
20260505090006 60 105 0.9 2.6 0.00 0.00 0.00 87 1005.0
20260505084506 60 114 0.9 4.3 0.00 0.00 0.00 87 1005.0
20260505083010 59 111 1.7 4.3 0.00 0.00 0.00 89 1004.9
20260505081506 58 109 1.7 3.5 0.00 0.00 0.00 92 1004.8
20260505080000 58 115 0.9 5.2 0.00 0.00 0.00 92 1005.1
20260505074559 58 111 0.9 3.5 0.00 0.00 0.00 91 1005.2
20260505073058 58 130 0.9 2.6 0.00 0.00 0.00 91 1005.5
20260505071610 58 136 0.9 2.6 0.00 0.00 0.00 91 1005.6
20260505070105 58 124 0.9 2.6 0.00 0.00 0.00 91 1005.8
20260505064556 58 116 0.0 3.5 0.00 0.00 0.00 91 1005.9
20260505063052 58 116 0.0 2.6 0.00 0.00 0.00 90 1006.2
20260505061557 58 127 0.9 2.6 0.00 0.00 0.00 91 1006.4
20260505060049 58 117 1.7 5.2 0.00 0.00 0.00 91 1006.5
20260505054553 58 119 1.7 3.5 0.00 0.00 0.00 90 1007.0
20260505053056 59 118 0.0 2.6 0.00 0.00 0.00 90 1006.9
20260505051545 59 114 0.0 2.6 0.00 0.00 0.00 89 1007.2
20260505041539 60 144 0.0 2.6 0.00 0.00 0.00 87 1007.5
20260505040043 61 149 0.0 1.7 0.00 0.00 0.00 86 1007.4
20260505034537 61 134 0.0 0.0 0.00 0.00 0.00 85 1007.3
20260505033041 62 134 0.0 0.0 0.00 0.00 0.00 84 1007.6
20260505031536 63 134 0.0 0.0 0.00 0.00 0.00 82 1007.5
20260505030037 63 134 0.0 1.7 0.00 0.00 0.00 82 1007.4
20260505024535 64 133 0.0 1.7 0.00 0.00 0.00 81 1007.1
20260505023035 65 133 0.0 2.6 0.00 0.00 0.00 79 1007.5
20260505021534 66 153 0.9 2.6 0.00 0.00 0.00 75 1006.8
20260505020033 68 167 0.0 2.6 0.00 0.00 0.00 73 1006.6
20260505014532 68 165 0.0 1.7 0.00 0.00 0.00 71 1006.5
20260505013031 69 157 0.0 1.7 0.00 0.00 0.00 69 1006.2
20260505011530 71 151 0.0 1.7 0.00 0.00 0.00 66 1006.0
20260505010029 71 178 0.9 2.6 0.00 0.00 0.00 65 1006.0
20260505004533 72 175 0.9 4.3 0.00 0.00 0.00 63 1005.9
20260505003028 73 166 0.9 3.5 0.00 0.00 0.00 62 1005.9
20260505001528 74 117 0.9 7.0 0.00 0.00 0.00 60 1005.8
20260505000029 76 219 2.6 8.7 0.00 0.00 0.00 57 1005.7
20260504234526 76 218 2.6 15.6 0.00 0.00 0.00 56 1005.9
20260504233025 77 175 2.6 13.0 0.00 0.00 0.00 55 1005.9
20260504231524 78 182 3.5 13.0 0.00 0.00 0.00 54 1006.1
20260504230027 78 170 3.5 12.2 0.00 0.00 0.00 53 1006.1
20260504224522 78 226 1.7 12.2 0.00 0.00 0.00 54 1006.2
20260504223022 79 169 4.3 17.4 0.00 0.00 0.00 53 1006.1
20260504221524 79 213 3.5 13.9 0.00 0.00 0.00 52 1006.2
20260504220124 80 221 6.1 12.2 0.00 0.00 0.00 50 1006.3
20260504214518 79 175 5.2 16.5 0.00 0.00 0.00 53 1006.3
20260504213018 79 127 4.3 18.2 0.00 0.00 0.00 52 1006.4
20260504211517 79 284 7.0 17.4 0.00 0.00 0.00 52 1006.6
20260504210018 80 196 5.2 10.4 0.00 0.00 0.00 51 1006.7
20260504204514 79 232 6.1 18.2 0.00 0.00 0.00 51 1006.8
20260504203014 80 151 7.8 16.5 0.00 0.00 0.00 50 1007.0
20260504201510 80 150 4.3 14.8 0.00 0.00 0.00 51 1007.3
20260504200014 80 149 3.5 16.5 0.00 0.00 0.00 51 1007.5
20260504194506 80 146 7.0 14.8 0.00 0.00 0.00 50 1007.7
20260504193002 79 192 3.5 12.2 0.00 0.00 0.00 52 1007.9
20260504191506 79 178 5.2 16.5 0.00 0.00 0.00 52 1008.1
20260504190111 79 245 5.2 17.4 0.00 0.00 0.00 51 1008.2
20260504184615 79 126 5.2 16.5 0.00 0.00 0.00 53 1008.1
20260504183101 79 200 5.2 17.4 0.00 0.00 0.00 53 1008.5
20260504181555 78 168 4.3 16.5 0.00 0.00 0.00 52 1008.4
20260504180053 77 217 5.2 15.6 0.00 0.00 0.00 53 1008.6
20260504174552 77 221 6.1 15.6 0.00 0.00 0.00 53 1008.8
20260504173055 77 252 3.5 17.4 0.00 0.00 0.00 52 1008.9
20260504171547 77 263 7.8 16.5 0.00 0.00 0.00 52 1009.1